This is the latest recevied weather packets stored in our database for station/object IU2QRC-03. If no packets are shown the sender has not sent any weather packets the latest 10 day(s).
| Time | Temp. | Humidity | Pressure | Rain* | Wind** | Luminosity | Snow |
|---|---|---|---|---|---|---|---|
| 1777511535 | 18.33° C | 46% | 1027.8 hPa | - | - | - | - |
| 1777510634 | 18.33° C | 46% | 1027.9 hPa | - | - | - | - |
| 1777509733 | 18.33° C | 45% | 1027.7 hPa | - | - | - | - |
| 1777508832 | 18.33° C | 46% | 1027.8 hPa | - | - | - | - |
| 1777507931 | 18.33° C | 46% | 1027.7 hPa | - | - | - | - |
| 1777507030 | 18.33° C | 46% | 1027.5 hPa | - | - | - | - |
| 1777506143 | 20° C | 44% | 1027.4 hPa | - | - | - | - |
| 1777506129 | 20° C | 44% | 1027.4 hPa | - | - | - | - |
| 1777505232 | 18.33° C | 46% | 1027.2 hPa | - | - | - | - |
| 1777503428 | 18.33° C | 47% | 1026.7 hPa | - | - | - | - |
| 1777502527 | 18.33° C | 47% | 1026.5 hPa | - | - | - | - |
| 1777501625 | 18.33° C | 47% | 1026.3 hPa | - | - | - | - |
| 1777500725 | 18.33° C | 47% | 1026.1 hPa | - | - | - | - |
| 1777499823 | 18.33° C | 48% | 1026 hPa | - | - | - | - |
| 1777498923 | 17.78° C | 51% | 1025.7 hPa | - | - | - | - |
| 1777498032 | 18.33° C | 48% | 1025.5 hPa | - | - | - | - |
| 1777497173 | 18.33° C | 47% | 1025.5 hPa | - | - | - | - |
| 1777497137 | 18.33° C | 47% | 1025.5 hPa | - | - | - | - |
| 1777497127 | 18.33° C | 47% | 1025.4 hPa | - | - | - | - |
| 1777496317 | 18.33° C | 48% | 1025.1 hPa | - | - | - | - |
| 1777495655 | 18.33° C | 45% | 1025 hPa | - | - | - | - |
| 1777495451 | 18.33° C | 47% | 1024.8 hPa | - | - | - | - |
| 1777494758 | 18.33° C | 47% | 1024.8 hPa | - | - | - | - |
| 1777494198 | 18.33° C | 48% | 1024.9 hPa | - | - | - | - |
| 1777494104 | 18.33° C | 49% | 1024.8 hPa | - | - | - | - |
* Rain since midnight (hover to see other rain measurements)
** Current wind speed in m/s (hover to see current wind gust speed)